Regional Weather Roundup
Issued by NWS

Home | Current Version | Previous Version | Text Only | Print | Product List | Glossary On
Versions: 1 2 3 4 5 6 7 8 9 10 11 12 13 14 15 16 17 18 19 20 21 22 23 24 25 26 27 28 29 30 31 32 33 34 35 36 37 38 39 40 41 42 43 44 45 46 47 48 49 50
000
ASUS43 KLOT 230308
RWRIL

ILLINOIS REGIONAL WEATHER ROUNDUP
NATIONAL WEATHER SERVICE CHICAGO/ROMEOVILLE IL
900 PM CST THU FEB 22 2018

NOTE: "FAIR" INDICATES FEW OR NO CLOUDS BELOW 12,000 FEET WITH NO
SIGNIFICANT WEATHER AND/OR OBSTRUCTIONS TO VISIBILITY.

* THESE STATIONS ARE NOT UNDER NWS QUALITY CONTROL. THEY ALSO MAY NOT
  REPORT WEATHER SUCH AS PRECIPITATION OR FOG.

ILZ001-002-007-009-015-016-024-230400-
NORTHWEST ILLINOIS

CITY           SKY/WX    TMP DP  RH WIND       PRES   REMARKS
MOLINE         FOG       37  37 100 E12       30.27S VSB 1   WCI  29
STERLING*      CLOUDY    35  32  88 E12       30.29F WCI  27
SAVANNA*       CLOUDY    35  31  86 E8        30.30S WCI  28
$$

ILZ003-004-008-010-011-017-018-230400-
NORTH CENTRAL ILLINOIS

CITY           SKY/WX    TMP DP  RH WIND       PRES   REMARKS
ROCKFORD       CLOUDY    36  29  75 E10       30.31F WCI  28
FREEPORT*      CLOUDY    33  30  89 E8        30.32F WCI  26
ROCHELLE*      CLOUDY    36  33  90 E12       30.30F WCI  27
DE KALB*       CLOUDY    36  33  88 E9        30.31F WCI  29
PERU*          CLOUDY    37  37  97 E8        30.30F FOG     WCI  31
$$

ILZ005-006-012>014-019>023-230400-
NORTHEAST ILLINOIS

CITY           SKY/WX    TMP DP  RH WIND       PRES   REMARKS
CHICAGO-OHARE  CLOUDY    40  34  79 E13       30.34F
CHICAGO-MIDWAY CLOUDY    41  35  79 E15       30.33F
AURORA         CLOUDY    40  35  83 E13       30.31F
LANSING*       CLOUDY    39  37  92 E17       30.32F WCI  30
JOLIET*        CLOUDY    42  38  88 E9        30.33R
WAUKEGAN       CLOUDY    37  32  82 E14G20    30.35F WCI  28
DUPAGE AIRPORT CLOUDY    39  35  86 E14       30.31F WCI  31
KANKAKEE*      CLOUDY    41  39  94 E15G21    30.30F
WHEELING       CLOUDY    40  33  76 E9        30.37F
MORRIS*        CLOUDY    40  38  90 E12       30.31R
ROMEOVILLE*    CLOUDY    40  36  87 E9        30.33R
NORTHERLY ISL    N/A     36  33  89 E12         N/A  WCI  28
$$

LMZ740>746-230400-
SOUTHERN LAKE MICHIGAN

STATION/POSITION SKY/WX   TEMP    WIND        PRES    VSBY  WAVE
                          AIR SEA DIR/SP/G                  HT/PER
                          (F)     (DEG/KT/KT) (MB)    (MI)  (FT/S)
HARRISON CRIB              36     100/ 17/ 18   N/A
BURNHAM HARBOR             36      80/  8/ 13   N/A
CALUMET HARBOR             37      90/ 10/ 15 1026.3F
BURNS HARBOR               39     110/ 12/ 18 1027.8F
MICHIGAN CITY              38     100/ 13/ 17   N/A
$$

ILZ025>027-034>036-040-047-049-050-058-095>099-230400-
WEST-CENTRAL ILLINOIS

CITY           SKY/WX    TMP DP  RH WIND       PRES   REMARKS
QUINCY         FOG       37  36  96 SE7       30.24F VSB 1/4 WCI  32
GALESBURG*     FOG       38  38 100 E3        30.27F VSB 1/4
MACOMB*        FOG       35  35 100 E6        30.28S VSB 1/4 WCI  30
JACKSONVILLE*  FOG       42  41  99 SE6       30.26F VSB 1
PITTSFIELD*    FOG       38  38 100 E3        30.25F VSB 1/4
$$

ILZ028>032-037-038-041>044-048-051>054-059>061-230400-
CENTRAL ILLINOIS

CITY           SKY/WX    TMP DP  RH WIND       PRES   REMARKS
PONTIAC        CLOUDY    42  42  98 SE9       30.31R FOG
BLOOMINGTON    CLOUDY    41  41 100 SE13      30.28R FOG
DECATUR        CLOUDY    43  42  97 SE12      30.29F FOG
PEORIA         CLOUDY    42  41  96 SE6       30.29F
LACON*         CLOUDY    41  41 100 SE7       30.29F FOG
LINCOLN*       CLOUDY    44  44 100 SE6       30.29R FOG
SPRINGFIELD    CLOUDY    45  43  93 SE6       30.28R
TAYLORVILLE    CLOUDY    43  43 100 SE10      30.28F FOG
$$

ILZ033-039-045-046-055>057-062-063-230400-
EAST-CENTRAL ILLINOIS

CITY           SKY/WX    TMP DP  RH WIND       PRES   REMARKS
CHAMPAIGN      CLOUDY    42  42 100 SE14      30.30F FOG
DANVILLE*      CLOUDY    42  41  99 SE8       30.31S FOG
RANTOUL*       CLOUDY    44  44 100 SE12      30.30F FOG
MATTOON        FOG       43  43 100 SE9       30.31F VSB 1
PARIS*         CLOUDY    42  42 100 E6        30.34F FOG
$$

ILZ079-100>102-230400-
SOUTHWEST ILLINOIS

CITY           SKY/WX    TMP DP  RH WIND       PRES   REMARKS
ALTON          LGT RAIN  43  43 100 SE3       30.29F VSB 1
BELLEVILLE     CLOUDY    44  43  95 SE3       30.27S
CAHOKIA*       LGT RAIN  43  42  97 CALM      30.30R FOG
SPARTA*        LGT RAIN  44  44 100 SE3       30.32R
$$

ILZ064>066-069>071-074>076-080>082-084>086-088>090-092>094-230400-
SOUTH-CENTRAL ILLINOIS

CITY           SKY/WX    TMP DP  RH WIND       PRES   REMARKS
CARBONDALE     LGT RAIN  46  46 100 CALM      30.31F
CAIRO*         CLOUDY    47  46  96 NE3       30.31F
EFFINGHAM*     FOG       46  46 100 E3        30.33F VSB 1
MARION         RAIN      46  46  99 SE6       30.31F
MT. VERNON     LGT RAIN  46  45  96 E5        30.30F FOG
CENTRALIA*     CLOUDY    46  46 100 SE5       30.29F FOG
SALEM*         LGT RAIN  47  46  95 E3        30.30F
METROPOLIS*    CLOUDY    49  47  93 N3        30.32F
$$

ILZ067-068-072-073-078-083-087-091-230400-
SOUTHEAST ILLINOIS

CITY           SKY/WX    TMP DP  RH WIND       PRES   REMARKS
LAWRENCEVILLE  CLOUDY    47  46  97 E9        30.33F FOG
FLORA*         LGT RAIN  47  47  97 SE3       30.34F
FAIRFIELD*     FOG       47  47 100 CALM      30.33S VSB 1/2
HARRISBURG*    RAIN      48  47  99 CALM      30.34R
ROBINSON*      CLOUDY    45  45 100 E6        30.35S FOG
CARMI*         FOG       47  47 100 CALM      30.33R VSB 3/4
$$

ABBREVIATIONS USED IN REMARKS
   TC - TEMPERATURE IN CELSIUS
  WCI - WIND CHILL INDEX
   HX - HEAT INDEX
  VSB - VISIBILITY
$$





USA.gov is the U.S. government's official web portal to all federal, state and local government web resources and services.